Showing default

OPS 0082 (TRANSIT 13), 2176

Orbit data source: Space-Track

OPS 0082 (TRANSIT 13), 2176 is a payload satellite owned by USN NAVAIR (US) in LEO that was launched on Thu, 19 May 1966 UTC via an SCOUT A launch vehicle from the Air Force Western Test Range (AFWTR). Payload-class satellites include a variety of spacecraft equipped with specific instruments for various scientific and technological missions. These include communications satellites like Starlink; space stations such as the ISS; scientific satellites like the Hubble; Earth observation satellites from companies like Planet Labs, Umbra, and HawkEye 360; GPS; miniature CubeSats for education and research; and military/defense satellites.

Loading next visibility...
Identifier
2176, 1966-041A
Orbit
LEO
Country
Flag of USUS
Related business
Manufacturer
APL
Mission
Spacecraft
Bus & Motor
TRANSIT 5, Unknown motor
Mass
51 kg wet, 51 kg dry
Launch date (UTC)
1966-05-19 (59 years ago)
Launch vehicle
SCOUT A
Launch site
Air Force Western Test Range (AFWTR)
Object type
Payload
Rocket body
Debris
Shape & HBR
Unknown
Radar Cross Section
Large (>1 m²)

Expand to show TLE details & history
Last TLE update: 8 hours ago

TLE from 8 hours ago
0 OPS 0082 (TRANSIT 13)
1 02176U 66041A   25299.88508470  .00000631  00000-0  38410-3 0  9999
2 02176  90.2302  77.2837 0064190 126.8249 233.8844 14.04205802 34690
Epoch: 2025-10-26T21:14Z
TLE epoch observation values (Epoch: 2025-10-26T21:14:31.318Z)
Latitude
-0.00002°
Longitude
83.15834°
Altitude
909.958 km
Speed
7.383 km/s
True Right ascension
05h 09m 08s
True Declination
0° 00' 00"
Sunlit
Object was in full shadow at epoch
Visualization orbit readout
Latitude
Unknown
Longitude
Unknown
Altitude
Unknown
Speed
Unknown
Apparent Right ascension
Unknown
Apparent Declination
Unknown
Sunlit
N/A
Visualization observer readout
Local Sidereal Time
00:36:09
Azimuth
Unknown
Elevation
Unknown
Doppler factor
Unknown
Orbital elements
Apogee altitude
922.804 km
Perigee altitude
829.673 km
Semi-major axis
7,254.376 km
Eccentricity
0.00642
Inclination
90.2302°
RAAN
77.2837°
Arg. of periapsis
126.8249°
True anomaly
233.293°
Mean anomaly
233.8844°
Eccentric anomaly
233.58842°
Mean motion
3.51272 °/min
Orbital period
102.48 mins
BSTAR
0.0003841
Loading maneuver chart data...
Computing Atmospheric mass density...
Loading historical data...
Loading historical data...
Loading historical data...
Loading historical data...
Loading historical data...
Loading historical data...
Loading historical data...

Documentation

Showing up to 5 results
|